Flag for Switzerland Weather past 2 weeks in Schaffhausen, Schaffhausen, Switzerland

Now
76 °F

Passing clouds.


Feels Like: 78 °F
Forecast: 52 / 80 °F
Wind: 5 mph from Southwest

Location: Zurich-Kloten

Current Time: Aug 3, 2015 at 12:37:57 PM

Latest Report: Aug 3, 2015 at 11:00 AM


Visibility: 14 mi

Pressure: 30.04 "Hg

Humidity: 57%

Dew point: 60 °F

Location of SchaffhausenLocation

Historic Weather in Schaffhausen — Graph

°F

Schaffhausen temperature yesterday

Maximum temperature yesterday: 80 °F (at 4:00 PM)
Minimum temperature yesterday: 59 °F (at 6:00 AM)
Average temperature yesterday: 69 °F

Past Weeks' High & Low Weather Summary

 TemperatureHumidityPressure
High95 °F (Jul 22, 3:00 PM)99% (Jul 30, 7:00 AM)30.12 "Hg (Jul 30, 7:00 AM)
Low50 °F (Jul 30, 5:00 AM)28% (Jul 21, 7:00 PM)29.65 "Hg (Jul 24, 7:00 PM)
Average68 °F64%29.93 "Hg
* Reported Jul 19 11:00 AM — Aug 3 11:00 AM, Schaffhausen, Weather by CustomWeather, © 2015

Note: Actual official high and low records may vary slightly from our data, if they occured in-between our weather recording intervals... More about our weather records

Advertising

Schaffhausen weather history for previous 24 hours

 ConditionsComfort  
Time TempWeatherWind HumidityBarometerVisibility
11:00 AM
Mon, Aug 3
76 °FPassing clouds.5 mph57%30.04 "Hg14 mi
10:00 AM72 °FMild.2 mph66%30.06 "HgN/A
9:00 AM67 °FMild.3 mph73%30.07 "HgN/A
8:00 AM61 °FPassing clouds.1 mph83%30.08 "Hg12 mi
7:00 AM56 °FCool.1 mph94%30.09 "HgN/A
6:00 AM55 °FCool.1 mph93%30.08 "HgN/A
5:00 AM56 °FFog.1 mph92%30.07 "Hg7 mi
4:00 AM55 °FCool.3 mph92%30.07 "HgN/A
3:00 AM59 °FCool.2 mph87%30.06 "HgN/A
2:00 AM58 °FClear.2 mph89%30.07 "Hg12 mi
1:00 AM60 °FCool.2 mph82%30.06 "HgN/A
12:00 AM61 °FCool.2 mph79%30.06 "HgN/A
10:00 PM
Sun, Aug 2
66 °FMild.1 mph64%30.04 "HgN/A
9:00 PM72 °FMild.8 mph51%30.01 "HgN/A
8:00 PM76 °FSunny.12 mph43%30.00 "Hg22 mi
7:00 PM78 °FWarm.13 mph41%29.99 "HgN/A
6:00 PM79 °FPleasantly warm.12 mph39%30.00 "HgN/A
5:00 PM79 °FPassing clouds.14 mph39%30.01 "Hg22 mi
4:00 PM80 °FPleasantly warm.13 mph40%30.01 "HgN/A
3:00 PM78 °FWarm.10 mph43%30.03 "HgN/A
2:00 PM77 °FPassing clouds.14 mph45%30.04 "Hg12 mi
1:00 PM75 °FMild.10 mph52%30.06 "HgN/A
12:00 PM71 °FMild.6 mph62%30.08 "HgN/A
Weather by CustomWeather, © 2015

See weather overviewHow to use our weather pages